Time,TemperatureF,DewpointF,PressureIn,WindDirection,WindDirectionDegrees,WindSpeedMPH,WindSpeedGustMPH,Humidity,HourlyPrecipIn,Conditions,Clouds,dailyrainin,SoftwareType,DateUTC
2013-09-24 00:09:00,57.6,37.5,29.91,NE,46,1.0,1.0,47,0.00,,,0.00,Wunderground v.1.15,2013-09-24 06:09:00,
2013-09-24 00:19:00,57.8,37.7,29.91,NE,46,0.0,0.0,47,0.00,,,0.00,Wunderground v.1.15,2013-09-24 06:19:00,
2013-09-24 00:29:00,57.5,37.9,29.91,NE,46,0.0,0.0,48,0.00,,,0.00,Wunderground v.1.15,2013-09-24 06:29:00,
2013-09-24 00:39:00,57.0,38.0,29.91,NE,46,0.0,0.0,49,0.00,,,0.00,Wunderground v.1.15,2013-09-24 06:39:00,
2013-09-24 00:49:00,56.3,38.4,29.91,NE,46,0.0,0.0,51,0.00,,,0.00,Wunderground v.1.15,2013-09-24 06:49:00,
2013-09-24 00:59:00,55.4,39.5,29.91,NE,46,0.0,0.0,55,0.00,,,0.00,Wunderground v.1.15,2013-09-24 06:59:00,
2013-09-24 01:09:00,54.7,39.3,29.91,NE,46,0.0,0.0,56,0.00,,,0.00,Wunderground v.1.15,2013-09-24 07:09:00,
2013-09-24 01:19:00,54.1,39.2,29.91,NE,46,0.0,0.0,57,0.00,,,0.00,Wunderground v.1.15,2013-09-24 07:19:00,
2013-09-24 01:29:00,53.8,39.4,29.91,NE,44,0.0,2.0,58,0.00,,,0.00,Wunderground v.1.15,2013-09-24 07:29:00,
2013-09-24 01:39:00,54.1,38.7,29.92,NE,42,0.0,0.0,56,0.00,,,0.00,Wunderground v.1.15,2013-09-24 07:39:00,
2013-09-24 01:49:00,54.1,38.3,29.92,NE,42,0.0,0.0,55,0.00,,,0.00,Wunderground v.1.15,2013-09-24 07:49:00,
2013-09-24 01:59:00,54.2,37.9,29.92,NE,42,0.0,0.0,54,0.00,,,0.00,Wunderground v.1.15,2013-09-24 07:59:00,
2013-09-24 02:09:00,54.8,37.5,29.93,NW,315,1.0,2.0,52,0.00,,,0.00,Wunderground v.1.15,2013-09-24 08:09:00,
2013-09-24 02:19:00,55.7,37.8,29.93,NNW,328,2.0,2.0,51,0.00,,,0.00,Wunderground v.1.15,2013-09-24 08:19:00,
2013-09-24 02:29:00,56.2,37.8,29.93,NW,312,1.0,1.0,50,0.00,,,0.00,Wunderground v.1.15,2013-09-24 08:29:00,
2013-09-24 02:39:00,56.2,38.3,29.93,NW,323,1.0,1.0,51,0.00,,,0.00,Wunderground v.1.15,2013-09-24 08:39:00,
2013-09-24 02:49:00,55.6,38.2,29.93,NW,323,0.0,0.0,52,0.00,,,0.00,Wunderground v.1.15,2013-09-24 08:49:00,
2013-09-24 02:59:00,55.0,38.6,29.93,NNW,333,0.0,3.0,54,0.00,,,0.00,Wunderground v.1.15,2013-09-24 08:59:00,
2013-09-24 03:09:00,55.4,38.5,29.93,North,11,2.0,2.0,53,0.00,,,0.00,Wunderground v.1.15,2013-09-24 09:09:00,
2013-09-24 03:19:00,55.7,38.3,29.93,NNE,15,2.0,2.0,52,0.00,,,0.00,Wunderground v.1.15,2013-09-24 09:19:00,
2013-09-24 03:29:00,55.6,38.2,29.93,NNE,16,1.0,1.0,52,0.00,,,0.00,Wunderground v.1.15,2013-09-24 09:29:00,
2013-09-24 03:39:00,55.4,38.1,29.93,NNE,12,2.0,3.0,52,0.00,,,0.00,Wunderground v.1.15,2013-09-24 09:39:00,
2013-09-24 03:49:00,55.1,38.3,29.93,North,5,1.0,1.0,53,0.00,,,0.00,Wunderground v.1.15,2013-09-24 09:49:00,
2013-09-24 03:59:00,54.5,37.7,29.93,North,10,1.0,1.0,53,0.00,,,0.00,Wunderground v.1.15,2013-09-24 09:59:00,
2013-09-24 04:09:00,54.1,37.8,29.93,NNE,13,1.0,1.0,54,0.00,,,0.00,Wunderground v.1.15,2013-09-24 10:09:00,
2013-09-24 04:19:00,53.6,37.8,29.93,NNE,12,2.0,3.0,55,0.00,,,0.00,Wunderground v.1.15,2013-09-24 10:19:00,
2013-09-24 04:29:00,53.5,38.2,29.93,North,360,3.0,6.0,56,0.00,,,0.00,Wunderground v.1.15,2013-09-24 10:29:00,
2013-09-24 04:39:00,53.5,38.2,29.94,NNE,17,3.0,3.0,56,0.00,,,0.00,Wunderground v.1.15,2013-09-24 10:39:00,
2013-09-24 04:49:00,53.2,37.9,29.94,NNE,15,2.0,2.0,56,0.00,,,0.00,Wunderground v.1.15,2013-09-24 10:49:00,
2013-09-24 04:59:00,52.8,38.0,29.94,North,5,1.0,1.0,57,0.00,,,0.00,Wunderground v.1.15,2013-09-24 10:59:00,
2013-09-24 05:09:00,52.5,37.2,29.94,North,11,0.0,0.0,56,0.00,,,0.00,Wunderground v.1.15,2013-09-24 11:09:00,
2013-09-24 05:19:00,52.5,37.2,29.94,North,11,1.0,2.0,56,0.00,,,0.00,Wunderground v.1.15,2013-09-24 11:19:00,
2013-09-24 05:29:00,52.5,36.8,29.94,NNE,16,1.0,1.0,55,0.00,,,0.00,Wunderground v.1.15,2013-09-24 11:29:00,
2013-09-24 05:39:00,52.3,36.6,29.95,NNE,17,0.0,0.0,55,0.00,,,0.00,Wunderground v.1.15,2013-09-24 11:39:00,
2013-09-24 05:49:00,52.0,37.2,29.95,NNE,17,0.0,0.0,57,0.00,,,0.00,Wunderground v.1.15,2013-09-24 11:49:00,
2013-09-24 05:59:00,51.6,37.3,29.95,NNE,16,0.0,1.0,58,0.00,,,0.00,Wunderground v.1.15,2013-09-24 11:59:00,
2013-09-24 06:09:00,51.3,37.4,29.96,North,10,0.0,0.0,59,0.00,,,0.00,Wunderground v.1.15,2013-09-24 12:09:00,
2013-09-24 06:19:00,51.1,37.3,29.96,North,360,0.0,0.0,59,0.00,,,0.00,Wunderground v.1.15,2013-09-24 12:19:00,
2013-09-24 06:29:00,50.7,37.3,29.97,North,355,0.0,0.0,60,0.00,,,0.00,Wunderground v.1.15,2013-09-24 12:29:00,
2013-09-24 06:39:00,50.7,37.3,29.97,NNW,344,1.0,1.0,60,0.00,,,0.00,Wunderground v.1.15,2013-09-24 12:39:00,
2013-09-24 06:49:00,50.5,37.5,29.97,North,5,1.0,2.0,61,0.00,,,0.00,Wunderground v.1.15,2013-09-24 12:49:00,
2013-09-24 06:59:00,49.1,38.2,29.97,North,5,1.0,2.0,66,0.00,,,0.00,Wunderground v.1.15,2013-09-24 12:59:00,
2013-09-24 07:09:00,47.7,38.4,29.98,North,10,1.0,1.0,70,0.00,,,0.00,Wunderground v.1.15,2013-09-24 13:09:00,
2013-09-24 07:19:00,47.0,38.4,29.98,North,10,0.0,0.0,72,0.00,,,0.00,Wunderground v.1.15,2013-09-24 13:19:00,
2013-09-24 07:29:00,46.5,38.3,29.99,North,10,0.0,0.0,73,0.00,,,0.00,Wunderground v.1.15,2013-09-24 13:29:00,
2013-09-24 07:39:00,47.7,39.8,29.99,North,10,0.0,0.0,74,0.00,,,0.00,Wunderground v.1.15,2013-09-24 13:39:00,
2013-09-24 07:49:00,49.4,40.7,29.99,NNE,13,1.0,1.0,72,0.00,,,0.00,Wunderground v.1.15,2013-09-24 13:49:00,
2013-09-24 07:59:00,51.0,41.2,29.99,NNE,13,0.0,0.0,69,0.00,,,0.00,Wunderground v.1.15,2013-09-24 13:59:00,
2013-09-24 08:09:00,52.5,41.1,29.99,NNE,13,0.0,0.0,65,0.00,,,0.00,Wunderground v.1.15,2013-09-24 14:09:00,
2013-09-24 08:19:00,54.7,41.5,29.99,NNE,13,0.0,0.0,61,0.00,,,0.00,Wunderground v.1.15,2013-09-24 14:19:00,
2013-09-24 08:29:00,55.6,41.5,29.99,NNE,13,0.0,0.0,59,0.00,,,0.00,Wunderground v.1.15,2013-09-24 14:29:00,
2013-09-24 08:39:00,56.9,41.8,30.00,NNE,13,0.0,0.0,57,0.00,,,0.00,Wunderground v.1.15,2013-09-24 14:39:00,
2013-09-24 08:49:00,57.5,41.4,30.00,ENE,60,1.0,1.0,55,0.00,,,0.00,Wunderground v.1.15,2013-09-24 14:49:00,
2013-09-24 08:59:00,58.9,39.8,30.00,NE,34,3.0,3.0,49,0.00,,,0.00,Wunderground v.1.15,2013-09-24 14:59:00,
2013-09-24 09:09:00,60.1,39.2,30.00,North,5,3.0,3.0,46,0.00,,,0.00,Wunderground v.1.15,2013-09-24 15:09:00,
2013-09-24 09:30:00,61.8,39.6,30.00,ENE,74,3.0,3.0,44,0.00,,,0.00,Wunderground v.1.15,2013-09-24 15:30:00,
2013-09-24 09:39:00,62.1,38.7,30.00,NE,36,3.0,4.0,42,0.00,,,0.00,Wunderground v.1.15,2013-09-24 15:39:00,
2013-09-24 09:50:00,62.7,39.3,30.00,NNE,30,4.0,4.0,42,0.00,,,0.00,Wunderground v.1.15,2013-09-24 15:50:00,
2013-09-24 10:00:00,63.5,38.7,30.01,ENE,65,4.0,6.0,40,0.00,,,0.00,Wunderground v.1.15,2013-09-24 16:00:00,
2013-09-24 10:10:00,63.7,38.3,30.01,NE,55,4.0,5.0,39,0.00,,,0.00,Wunderground v.1.15,2013-09-24 16:10:00,
2013-09-24 10:20:00,64.7,37.8,30.01,NE,49,3.0,4.0,37,0.00,,,0.00,Wunderground v.1.15,2013-09-24 16:20:00,
2013-09-24 10:30:00,65.2,37.6,30.00,ENE,59,4.0,4.0,36,0.00,,,0.00,Wunderground v.1.15,2013-09-24 16:30:00,
2013-09-24 10:40:00,65.6,37.2,30.00,ENE,65,3.0,4.0,35,0.00,,,0.00,Wunderground v.1.15,2013-09-24 16:40:00,
2013-09-24 10:50:00,65.8,37.4,30.00,ENE,57,4.0,4.0,35,0.00,,,0.00,Wunderground v.1.15,2013-09-24 16:50:00,
2013-09-24 11:00:00,66.6,38.1,30.00,ESE,105,2.0,2.0,35,0.00,,,0.00,Wunderground v.1.15,2013-09-24 17:00:00,
2013-09-24 11:10:00,67.1,38.5,29.99,East,95,2.0,4.0,35,0.00,,,0.00,Wunderground v.1.15,2013-09-24 17:10:00,
2013-09-24 11:20:00,67.3,38.0,29.99,ENE,65,3.0,3.0,34,0.00,,,0.00,Wunderground v.1.15,2013-09-24 17:20:00,
2013-09-24 11:30:00,68.1,37.9,29.99,ENE,69,2.0,4.0,33,0.00,,,0.00,Wunderground v.1.15,2013-09-24 17:30:00,
2013-09-24 11:39:00,68.1,37.1,29.98,ENE,71,3.0,3.0,32,0.00,,,0.00,Wunderground v.1.15,2013-09-24 17:39:00,
2013-09-24 11:50:00,68.4,37.4,29.98,NE,36,1.0,1.0,32,0.00,,,0.00,Wunderground v.1.15,2013-09-24 17:50:00,
2013-09-24 12:00:00,69.8,36.9,29.98,NE,42,1.0,1.0,30,0.00,,,0.00,Wunderground v.1.15,2013-09-24 18:00:00,
2013-09-24 12:10:00,69.4,36.6,29.97,SSE,153,2.0,2.0,30,0.00,,,0.00,Wunderground v.1.15,2013-09-24 18:10:00,
2013-09-24 12:20:00,70.1,36.3,29.97,NE,35,2.0,2.0,29,0.00,,,0.00,Wunderground v.1.15,2013-09-24 18:20:00,
2013-09-24 12:29:00,70.8,37.0,29.96,NE,35,1.0,1.0,29,0.00,,,0.00,Wunderground v.1.15,2013-09-24 18:29:00,
2013-09-24 12:40:00,70.9,38.7,29.95,North,350,2.0,3.0,31,0.00,,,0.00,Wunderground v.1.15,2013-09-24 18:40:00,
2013-09-24 12:50:00,71.5,35.7,29.95,North,11,2.0,2.0,27,0.00,,,0.00,Wunderground v.1.15,2013-09-24 18:50:00,
2013-09-24 13:00:00,72.0,37.1,29.94,SSW,204,1.0,1.0,28,0.00,,,0.00,Wunderground v.1.15,2013-09-24 19:00:00,
2013-09-24 13:10:00,73.0,37.0,29.93,North,355,1.0,1.0,27,0.00,,,0.00,Wunderground v.1.15,2013-09-24 19:10:00,
2013-09-24 13:19:00,73.2,36.2,29.93,SSE,165,1.0,4.0,26,0.00,,,0.00,Wunderground v.1.15,2013-09-24 19:19:00,
2013-09-24 13:30:00,73.2,37.2,29.92,West,271,2.0,2.0,27,0.00,,,0.00,Wunderground v.1.15,2013-09-24 19:30:00,
2013-09-24 13:40:00,73.3,38.2,29.91,SSW,213,3.0,3.0,28,0.00,,,0.00,Wunderground v.1.15,2013-09-24 19:40:00,
2013-09-24 13:50:00,73.3,38.2,29.91,WSW,255,2.0,2.0,28,0.00,,,0.00,Wunderground v.1.15,2013-09-24 19:50:00,
2013-09-24 14:00:00,74.6,38.4,29.90,SSE,162,1.0,6.0,27,0.00,,,0.00,Wunderground v.1.15,2013-09-24 20:00:00,
2013-09-24 14:09:00,73.9,34.8,29.89,West,260,4.0,4.0,24,0.00,,,0.00,Wunderground v.1.15,2013-09-24 20:09:00,
2013-09-24 14:20:00,74.9,37.7,29.89,SSW,206,3.0,3.0,26,0.00,,,0.00,Wunderground v.1.15,2013-09-24 20:20:00,
2013-09-24 14:30:00,75.3,37.0,29.88,SW,227,2.0,2.0,25,0.00,,,0.00,Wunderground v.1.15,2013-09-24 20:30:00,
2013-09-24 14:40:00,75.1,36.9,29.87,SSW,195,3.0,3.0,25,0.00,,,0.00,Wunderground v.1.15,2013-09-24 20:40:00,
2013-09-24 14:50:00,76.0,37.6,29.87,WSW,250,2.0,2.0,25,0.00,,,0.00,Wunderground v.1.15,2013-09-24 20:50:00,
2013-09-24 15:00:00,75.8,34.2,29.86,SSW,198,3.0,3.0,22,0.00,,,0.00,Wunderground v.1.15,2013-09-24 21:00:00,
2013-09-24 15:09:00,76.1,34.5,29.86,WSW,237,3.0,4.0,22,0.00,,,0.00,Wunderground v.1.15,2013-09-24 21:09:00,
2013-09-24 15:19:00,76.5,37.0,29.86,SW,228,3.0,4.0,24,0.00,,,0.00,Wunderground v.1.15,2013-09-24 21:19:00,
2013-09-24 15:30:00,75.8,36.4,29.85,WSW,257,4.0,4.0,24,0.00,,,0.00,Wunderground v.1.15,2013-09-24 21:30:00,
2013-09-24 15:40:00,76.5,37.0,29.84,SSW,212,4.0,4.0,24,0.00,,,0.00,Wunderground v.1.15,2013-09-24 21:40:00,
2013-09-24 15:49:00,76.3,34.6,29.84,WSW,253,4.0,4.0,22,0.00,,,0.00,Wunderground v.1.15,2013-09-24 21:49:00,
2013-09-24 15:59:00,76.7,35.0,29.84,SW,230,4.0,4.0,22,0.00,,,0.00,Wunderground v.1.15,2013-09-24 21:59:00,
2013-09-24 16:10:00,76.5,35.9,29.83,South,175,4.0,4.0,23,0.00,,,0.00,Wunderground v.1.15,2013-09-24 22:10:00,
2013-09-24 16:20:00,76.3,34.6,29.83,SW,233,4.0,4.0,22,0.00,,,0.00,Wunderground v.1.15,2013-09-24 22:20:00,
2013-09-24 16:30:00,76.3,34.6,29.83,South,181,4.0,4.0,22,0.00,,,0.00,Wunderground v.1.15,2013-09-24 22:30:00,
2013-09-24 16:39:00,76.5,35.9,29.82,SSW,197,4.0,4.0,23,0.00,,,0.00,Wunderground v.1.15,2013-09-24 22:39:00,
2013-09-24 16:50:00,76.0,35.5,29.82,SSW,213,3.0,3.0,23,0.00,,,0.00,Wunderground v.1.15,2013-09-24 22:50:00,
2013-09-24 17:00:00,76.1,36.7,29.82,SW,219,3.0,6.0,24,0.00,,,0.00,Wunderground v.1.15,2013-09-24 23:00:00,
2013-09-24 17:10:00,75.8,37.5,29.82,South,169,4.0,5.0,25,0.00,,,0.00,Wunderground v.1.15,2013-09-24 23:10:00,
2013-09-24 17:19:00,75.8,37.5,29.82,South,188,3.0,3.0,25,0.00,,,0.00,Wunderground v.1.15,2013-09-24 23:19:00,
2013-09-24 17:30:00,75.6,38.3,29.82,South,174,3.0,6.0,26,0.00,,,0.00,Wunderground v.1.15,2013-09-24 23:30:00,
2013-09-24 17:39:00,75.3,38.0,29.82,South,176,3.0,5.0,26,0.00,,,0.00,Wunderground v.1.15,2013-09-24 23:39:00,
2013-09-24 17:50:00,74.9,37.7,29.82,South,186,3.0,3.0,26,0.00,,,0.00,Wunderground v.1.15,2013-09-24 23:50:00,
2013-09-24 18:00:00,74.9,37.7,29.81,SSW,196,2.0,2.0,26,0.00,,,0.00,Wunderground v.1.15,2013-09-25 00:00:00,
2013-09-24 18:10:00,74.6,37.4,29.81,South,191,2.0,2.0,26,0.00,,,0.00,Wunderground v.1.15,2013-09-25 00:10:00,
2013-09-24 18:20:00,74.0,38.8,29.81,South,184,2.0,2.0,28,0.00,,,0.00,Wunderground v.1.15,2013-09-25 00:20:00,
2013-09-24 18:29:00,73.3,38.2,29.80,SSW,211,1.0,1.0,28,0.00,,,0.00,Wunderground v.1.15,2013-09-25 00:29:00,
2013-09-24 18:40:00,72.5,38.4,29.80,SSW,198,1.0,1.0,29,0.00,,,0.00,Wunderground v.1.15,2013-09-25 00:40:00,
2013-09-24 18:50:00,71.6,39.3,29.80,SSW,198,0.0,0.0,31,0.00,,,0.00,Wunderground v.1.15,2013-09-25 00:50:00,
2013-09-24 19:00:00,70.3,39.8,29.80,SSW,198,0.0,0.0,33,0.00,,,0.00,Wunderground v.1.15,2013-09-25 01:00:00,
2013-09-24 19:10:00,68.9,40.1,29.80,SSW,198,0.0,0.0,35,0.00,,,0.00,Wunderground v.1.15,2013-09-25 01:10:00,
2013-09-24 19:19:00,67.9,40.7,29.80,SSW,198,0.0,0.0,37,0.00,,,0.00,Wunderground v.1.15,2013-09-25 01:19:00,
2013-09-24 19:30:00,67.3,40.1,29.80,SSW,198,0.0,0.0,37,0.00,,,0.00,Wunderground v.1.15,2013-09-25 01:30:00,
2013-09-24 19:40:00,66.4,40.7,29.80,SSW,198,0.0,0.0,39,0.00,,,0.00,Wunderground v.1.15,2013-09-25 01:40:00,
2013-09-24 19:49:00,65.8,40.1,29.80,SSW,198,0.0,0.0,39,0.00,,,0.00,Wunderground v.1.15,2013-09-25 01:49:00,
2013-09-24 19:59:00,64.7,41.7,29.80,SSW,198,0.0,0.0,43,0.00,,,0.00,Wunderground v.1.15,2013-09-25 01:59:00,
2013-09-24 20:10:00,63.9,40.3,29.80,SSW,198,0.0,0.0,42,0.00,,,0.00,Wunderground v.1.15,2013-09-25 02:10:00,
2013-09-24 20:20:00,63.1,41.4,29.80,SSW,197,0.0,0.0,45,0.00,,,0.00,Wunderground v.1.15,2013-09-25 02:20:00,
2013-09-24 20:29:00,62.3,42.9,29.81,SSW,197,0.0,0.0,49,0.00,,,0.00,Wunderground v.1.15,2013-09-25 02:29:00,
2013-09-24 20:39:00,61.3,42.5,29.81,SSW,197,0.0,0.0,50,0.00,,,0.00,Wunderground v.1.15,2013-09-25 02:39:00,
2013-09-24 20:49:00,60.4,42.2,29.81,SSW,197,0.0,0.0,51,0.00,,,0.00,Wunderground v.1.15,2013-09-25 02:49:00,
2013-09-24 21:00:00,59.5,41.3,29.81,SSW,197,0.0,0.0,51,0.00,,,0.00,Wunderground v.1.15,2013-09-25 03:00:00,
2013-09-24 21:10:00,59.8,41.1,29.81,SSW,197,0.0,0.0,50,0.00,,,0.00,Wunderground v.1.15,2013-09-25 03:10:00,
2013-09-24 21:20:00,60.5,40.7,29.81,SSW,198,0.0,0.0,48,0.00,,,0.00,Wunderground v.1.15,2013-09-25 03:20:00,
2013-09-24 21:30:00,60.5,41.2,29.81,SSW,197,0.0,0.0,49,0.00,,,0.00,Wunderground v.1.15,2013-09-25 03:30:00,
2013-09-24 21:39:00,59.2,42.6,29.81,SSW,197,0.0,0.0,54,0.00,,,0.00,Wunderground v.1.15,2013-09-25 03:39:00,
2013-09-24 21:50:00,58.3,42.2,29.81,SSW,197,0.0,0.0,55,0.00,,,0.00,Wunderground v.1.15,2013-09-25 03:50:00,
2013-09-24 22:00:00,58.1,42.5,29.81,SSW,197,0.0,0.0,56,0.00,,,0.00,Wunderground v.1.15,2013-09-25 04:00:00,
2013-09-24 22:10:00,58.0,40.5,29.81,SW,217,0.0,0.0,52,0.00,,,0.00,Wunderground v.1.15,2013-09-25 04:10:00,
2013-09-24 22:19:00,57.8,40.8,29.81,SW,217,0.0,0.0,53,0.00,,,0.00,Wunderground v.1.15,2013-09-25 04:19:00,
2013-09-24 22:29:00,57.0,41.4,29.81,SW,217,0.0,0.0,56,0.00,,,0.00,Wunderground v.1.15,2013-09-25 04:29:00,
2013-09-24 22:40:00,56.3,40.8,29.81,SW,217,0.0,0.0,56,0.00,,,0.00,Wunderground v.1.15,2013-09-25 04:40:00,
2013-09-24 22:50:00,56.2,41.2,29.81,SW,217,0.0,0.0,57,0.00,,,0.00,Wunderground v.1.15,2013-09-25 04:50:00,
2013-09-24 23:00:00,55.7,42.0,29.81,SW,217,0.0,0.0,60,0.00,,,0.00,Wunderground v.1.15,2013-09-25 05:00:00,
2013-09-24 23:09:00,55.0,42.2,29.81,SW,217,0.0,0.0,62,0.00,,,0.00,Wunderground v.1.15,2013-09-25 05:09:00,
2013-09-24 23:20:00,54.2,42.7,29.81,SW,217,0.0,0.0,65,0.00,,,0.00,Wunderground v.1.15,2013-09-25 05:20:00,
2013-09-24 23:30:00,53.6,42.1,29.81,SW,217,0.0,0.0,65,0.00,,,0.00,Wunderground v.1.15,2013-09-25 05:30:00,
2013-09-24 23:39:00,53.6,42.1,29.81,SW,217,0.0,0.0,65,0.00,,,0.00,Wunderground v.1.15,2013-09-25 05:39:00,
2013-09-24 23:49:00,53.6,42.1,29.81,SW,217,0.0,0.0,65,0.00,,,0.00,Wunderground v.1.15,2013-09-25 05:49:00,
2013-09-24 23:59:00,53.5,42.0,29.80,SW,217,0.0,0.0,65,0.00,,,0.00,Wunderground v.1.15,2013-09-25 05:59:00,